CAPE
1651 1556 1504 1538 1362 1169 1035 1113 1196 1414 1843 1792 1781 1754 1660 1672 1305 1272 324 64 0 290
1950 1844 1599 1633 1665 1572 1455 1292 1363 1423 1660 1648 1653 1368 1076 1679 1392 1503 703 112 4 9
1951 1959 1901 1887 1801 1677 1608 1603 1486 1751 1873 1865 1772 1572 1811 1635 1485 1388 818 462 229 267
1878 1903 1984 1891 1897 1905 1748 1629 1769 1908 2042 2104 1665 1444 1899 1771 1465 1340 895 780 521 515
2023 2035 1925 1908 1832 1862 1802 1872 2057 2047 2219 2355 2179 1909 1974 1843 1374 960 737 711 841 922
2164 2188 2072 2000 1964 1912 1984 2088 2007 1992 2028 2256 2318 1974 1964 1858 1376 986 872 1038 890 979
2441 2432 2409 2367 2297 2228 2277 2410 2426 2522 2585 2598 2582 2264 1787 1568 1383 1255 1188 1238 1081 862
2731 2676 2747 2791 2861 2833 2877 2860 2940 2890 2710 2747 2766 2597 2090 1866 1855 1612 1503 1422 1392 1134
3149 3079 3105 3139 3168 3164 3202 3211 3128 2955 3057 2795 2469 2139 1957 2015 1917 1703 1533 1383 1452 1388
3566 3409 3542 3658 3539 3431 3275 3063 3122 2700 2513 2522 2439 1783 1590 1407 1898 1657 1548 1421 1320 1195
3934 3646 3806 3770 3525 3364 3121 2964 2801 2635 2578 2445 2393 1770 1347 1185 1586 1582 1619 1456 1401 1360
3988 3967 3769 3613 3449 3215 3117 3008 2899 2721 2608 2410 2194 1573 1193 1042 1494 1581 1624 1742 1662 1624
3992 4175 3475 3500 3489 3277 3118 3010 2715 2690 2578 2444 2231 1646 1001 905 1427 1432 1548 1726 1877 1697
4095 4169 3563 3444 3460 3328 3160 2775 2975 2830 2697 2574 2454 2332 1385 719 1404 1418 1437 1307 1203 1500
CIN
-120 -84 -76 -51 -30 -29 -22 -6 -4 -5 -7 -10 -13 -10 -5 -3 -3 -4 -57 -63 -15 -3
-116 -100 -81 -66 -52 -43 -28 -13 -18 -23 -20 -24 -14 -11 -18 -1 -9 -5 -34 -92 -17 -98
-137 -136 -111 -75 -74 -58 -46 -44 -28 -28 -7 -6 -17 -9 -8 0 -5 -14 -34 -44 -60 -23
-132 -134 -139 -116 -106 -87 -62 -57 -46 -31 -7 -7 -3 -25 -2 -2 0 -8 -32 -25 -39 -16
-136 -141 -132 -138 -115 -103 -89 -59 -44 -27 -2 0 0 -2 0 0 -14 -23 -25 -20 -3 0
-140 -150 -143 -131 -125 -105 -87 -59 -47 -38 -23 -4 0 -7 -6 -5 -19 -28 -29 -5 -2 0
-127 -130 -125 -115 -113 -98 -87 -54 -38 -20 -8 -3 0 -15 -36 -34 -31 -31 -24 -6 -11 -19
-138 -116 -118 -116 -91 -71 -47 -48 -25 -10 -11 -1 0 0 -11 -7 -1 -13 -7 -8 -7 -19
-192 -162 -149 -130 -112 -90 -35 -16 -24 -26 -10 -20 -19 -27 -31 -7 -2 -2 -3 -11 -5 -2
-193 -189 -163 -105 -86 -79 -59 -40 -27 -52 -57 -44 -37 -116 -119 -126 -13 -22 -14 -14 -6 -4
-146 -178 -168 -136 -110 -81 -76 -53 -49 -53 -40 -34 -31 -112 -169 -168 -52 -30 -10 -10 -5 -2
-109 -158 -178 -156 -131 -102 -76 -42 -24 -29 -31 -36 -33 -119 -175 -178 -56 -31 -9 0 -2 -1
-112 -57 -206 -163 -121 -84 -55 -33 -18 -15 -16 -11 -14 -82 -173 -174 -28 -16 -3 -2 0 -3
-83 -31 -148 -167 -121 -87 -40 -19 -4 -1 -1 -1 0 -3 -72 -175 -22 -4 -2 -5 -9 -2
Wind_Speed
20 20 21 20 21 21 21 17 16 13 12 10 6 6 2 8 17 21 18 26 34 35
20 21 20 21 18 21 20 19 17 14 14 10 9 10 8 12 13 17 19 20 12 24
23 23 23 20 21 20 20 19 20 15 13 10 9 13 13 11 7 7 10 19 22 26
23 22 22 22 22 22 22 20 18 17 16 20 14 15 16 14 9 11 12 27 30 28
21 21 20 22 22 22 21 20 20 21 19 19 15 13 13 13 6 6 12 15 18 16
21 21 22 22 21 20 21 21 20 19 19 18 15 14 13 11 8 6 7 8 9 15
20 20 22 21 20 19 18 18 18 18 16 16 14 11 10 8 6 4 5 7 5 5
16 17 16 16 16 17 17 17 18 16 16 14 13 11 9 8 9 8 4 4 5 5
7 8 9 9 11 12 15 17 15 13 11 10 9 6 4 6 6 9 12 8 4 4
4 4 4 5 8 9 10 13 12 11 8 8 7 5 4 6 5 6 7 8 6 3
7 4 3 3 5 6 6 8 7 6 5 5 4 4 4 6 7 6 5 7 6 6
11 7 5 3 2 2 2 2 3 4 3 3 3 3 3 3 4 5 5 4 5 5
13 11 7 5 4 4 5 5 6 7 5 5 5 3 3 4 3 1 3 4 5 5
18 12 8 6 6 7 8 10 10 10 9 8 6 5 0 4 2 2 2 3 5 3
Wind_Direction
177 179 182 181 186 187 191 186 185 183 186 188 191 193 268 315 314 310 311 303 286 268
175 180 181 184 179 189 188 188 185 186 191 191 194 191 194 319 323 318 315 310 330 303
175 179 182 180 187 186 189 190 196 185 188 190 190 189 194 191 194 195 325 312 306 290
172 175 179 185 188 191 193 193 191 189 190 201 184 186 193 193 189 197 201 235 259 243
172 173 176 186 189 189 191 189 189 190 190 192 179 179 186 185 172 179 194 199 202 194
172 175 182 185 186 183 188 188 186 183 185 187 178 178 180 176 168 153 151 153 157 182
167 171 177 177 175 170 169 173 176 173 171 171 166 158 150 142 124 104 114 128 96 73
152 152 148 145 147 151 154 156 162 154 155 156 158 150 135 123 132 129 79 64 91 106
136 125 122 115 125 129 144 154 145 140 133 127 137 102 86 100 103 136 155 138 83 15
176 149 122 108 118 120 127 141 138 135 121 126 129 72 95 141 103 108 137 145 131 94
234 205 176 139 130 126 117 130 123 115 103 100 111 78 114 142 157 145 142 150 140 148
248 223 218 213 182 133 93 71 69 31 37 43 40 60 113 127 147 173 177 171 174 174
247 242 227 247 264 289 307 321 333 341 354 360 2 22 135 158 167 205 201 198 201 207
252 247 243 250 269 281 294 307 316 326 337 340 345 352 119 185 209 233 283 300 321 278